Lexington Weather

Lexington, Massachusetts, USA

36°F
1/28/2020 5:58am 
  • Lexington Conditions: Overcast
  • Temperature: 36.1°F / 2.3°CWarmer 0.1°F than last hour.
  • Dew Point: 29.7°FIncreased 0.2°Fsince last hour.
  • Relative Humidity: 77
  • Wind: Wind from NW NW 1 mph, 10-min avg: 1 mph, gust: 4 mph
  • Barometer: 29.65 inRising 0.02  inHg/hr Rising Slowly
  • Visibility: 10 miles
  • Rain Today: 0.00 in
  •   

Regional Weather Roundup
for Boston / Norton, MA

        
000
ASUS41 KBOX 252001
RWRBOX

REGIONAL WEATHER ROUNDUP
NATIONAL WEATHER SERVICE BOSTON/NORTON MA
300 PM EST SAT JAN 25 2020

NOTE:  "FAIR" INDICATES FEW OR NO CLOUDS BELOW 12,000 FEET WITH NO 
SIGNIFICANT WEATHER AND/OR OBSTRUCTIONS TO VISIBILITY.

MAZALL-252100-
EASTERN MASSACHUSETTS
  
CITY           SKY/WX    TMP DP  RH WIND       PRES   REMARKS
BOSTON         CLOUDY    45  39  79 E18       30.08F                  
BEVERLY        CLOUDY    44  38  79 E13       30.10F                  
LAWRENCE       CLOUDY    41  37  86 E10G18    30.11F                  
BEDFORD        CLOUDY    43  38  82 E16       30.06F HAZE             
BLUE HILL        N/A     41  39  93 E20G31    30.03F WCI  32          
NORWOOD        CLOUDY    47  39  74 E15       30.05F                  
MARSHFIELD     NOT AVBL                                               
PLYMOUTH       CLOUDY    44  41  89 E14       30.06F                  
TAUNTON        CLOUDY    45  40  82 E9        30.03F                  
NEW BEDFORD    CLOUDY    46  40  79 E10       30.02F                  
$$

MAZALL-252100-
CAPE COD AND THE ISLANDS
  
CITY           SKY/WX    TMP DP  RH WIND       PRES   REMARKS
FALMOUTH       CLOUDY    46  43  87 E17G28    30.04F                  
HYANNIS        NOT AVBL                                               
CHATHAM        CLOUDY    46  43  89 E10       30.08F                  
PROVINCETOWN   CLOUDY    46  43  89 E14G21    30.10F                  
NANTUCKET      CLOUDY    48  42  80 E18       30.03F                  
MARTHAS VNYRD  CLOUDY    44  40  85 E15       30.02F                  
$$
 
MAZALL-252100-
CENTRAL AND WESTERN MASSACHUSETTS
  
CITY           SKY/WX    TMP DP  RH WIND       PRES   REMARKS
WORCESTER      FOG       37  36  96 E12G23    30.00F VSB<1/4 WCI  29  
FITCHBURG      FOG       37  35  92 E6        30.06F VSB 1            
ORANGE         CLOUDY    39  35  86 E7        30.01F                  
SPRINGFIELD    DRIZZLE   41  39  93 E9        29.94F FOG              
WESTFIELD      LGT RAIN  39  37  92 NE9       29.94F FOG              
NORTH ADAMS    CLOUDY    39  32  76 E26G38    29.91F WCI  28          
PITTSFIELD     LGT RAIN  37  33  85 E8G20     29.87F FOG     WCI  31  
$$
 
RIZALL-252100-
RHODE ISLAND
  
CITY           SKY/WX    TMP DP  RH WIND       PRES   REMARKS
PROVIDENCE     CLOUDY    46  41  82 NE13      30.01F                  
NEWPORT        CLOUDY    47  41  80 E17       29.99F                  
BLOCK ISLAND   LGT RAIN  43  42  97 E21       29.95F FOG              
SMITHFIELD     CLOUDY    42  41  96 E9G17     30.01F FOG              
WESTERLY       LGT RAIN  48  42  80 E21G33    29.94F                  
$$
 
CTZALL-252100-
CONNECTICUT
  
CITY           SKY/WX    TMP DP  RH WIND       PRES   REMARKS
BRADLEY INTL   LGT RAIN  42  38  85 NE9       29.92F                  
HARTFORD       CLOUDY    44  40  85 E14G21    29.91F                  
BRIDGEPORT     LGT RAIN  43  41  93 E23G35    29.83F FOG              
DANBURY        RAIN      43  42  97 E8        29.83F FOG              
GROTON         NOT AVBL                                               
NEW HAVEN      LGT RAIN  46  44  93 E23G35    29.85F FOG              
CHESTER        NOT AVBL                                               
MERIDEN        LGT RAIN  44  42  93 VRB7      29.88F                  
WILLIMANTIC    LGT RAIN  43  41  93 E10G25    29.94F                  
OXFORD         RAIN      41  40  96 E14G20    29.84F FOG              
$$

MEZ002-015-021-024-NHZ003-005-008-011-012-014-VTZ005-008-252100-
NORTHERN NEW ENGLAND
  
CITY           SKY/WX    TMP DP  RH WIND       PRES   REMARKS
PORTLAND ME    CLOUDY    39  35  86 E15       30.18F WCI  31          
BANGOR ME      CLOUDY    36  30  79 SE9       30.26F WCI  29          
CONCORD NH     CLOUDY    36  32  85 VRB7G17   30.10F WCI  30          
MANCHESTER NH  CLOUDY    38  35  89 NE8       30.07F                  
NASHUA NH      CLOUDY    37  37 100 VRB6      30.08F FOG              
PORTSMOUTH NH  CLOUDY    40  38  91 E12       30.11F FOG              
JAFFREY NH     FOG       36  34  92 MISG      30.01F VSB 3/4          
KEENE NH       CLOUDY    37  34  89 NW7G16    30.02F WCI  32          
BURLINGTON VT  CLOUDY    40  29  64 E7        29.99F                  
MT. WASHINGTON BLWGSNOW  21  18  86 SE60G66     N/A  VSB 1/8 WCI  -2  
$$

NYZ052-076-252100-
EASTERN NEW YORK
  
CITY           SKY/WX    TMP DP  RH WIND       PRES   REMARKS
ALBANY         LGT RAIN  38  33  82 W5        29.89F                  
NEW YORK CITY  HVY RAIN  50  47  89 SE30G38   29.75F VSB 1            
$$
 
ANZALL-252100-
MARINE OBSERVATIONS
  
STATION/POSITION TIME  TEMP    WIND        PRES    VSBY  WAVE
                       AIR SEA DIR/SP/G                  HT/PER
                 (UTC) (F)     (DEG/KT/KT) (MB)    (MI)  (FT/S)
BOSTON BUOY      1850   43 43   70/ 16/ 19 1019.0          4/ 5
BUZZARDS BAY     1900   43      70/ 22/ 23 1017.3F
NANTUCKET SOUND  1920                      1017.8
MASS BAY-STELLWA 1904   43 41  110/ 16/ 17 1018.0F  1 7/8  5/ 5
ISLE OF SHOALS   1900   42      80/ 20/ 22 1020.2F
S OF BLOCK IS    1930      45                N/A           7/10
$$

......................KEY.........................
  SKY/WX - SKY CONDITION/PRESENT WEATHER
  TMP    - TEMPERATURE IN FAHRENHEIT
  DWPT   - DEWPOINT IN FAHRENHEIT
  RH     - RELATIVE HUMIDITY IN PERCENT
  WIND   - DIRECTION AND SPEED IN MPH
  PRES   - MEAN SEA LEVEL PRESSURE IN INCHES OF HG
  WCI    - WIND CHILL INDEX
  VSB    - VISIBILITY IN MILES
  HX     - HEAT INDEX
  TC     - TEMPERATURE IN CELSIUS
  VRB    - VARIABLE WIND DIRECTION
  N/A    - NOT AVAILABLE
  
      

Other recent Regional Weather Roundups

Tue Jan 28, 5:10am

Tue Jan 28, 5:00am

Tue Jan 28, 4:10am

Tue Jan 28, 4:00am

Tue Jan 28, 3:10am

Tue Jan 28, 3:01am

Tue Jan 28, 2:10am

Tue Jan 28, 2:00am

Tue Jan 28, 1:10am

Tue Jan 28, 1:00am

Tue Jan 28, 12:10am

Tue Jan 28, 12:01am

Mon Jan 27, 11:10pm

Mon Jan 27, 11:00pm

Mon Jan 27, 10:10pm

Mon Jan 27, 10:00pm

Mon Jan 27, 9:10pm

Mon Jan 27, 9:00pm

Mon Jan 27, 8:10pm

Mon Jan 27, 8:01pm

Mon Jan 27, 7:10pm

Mon Jan 27, 7:00pm

Mon Jan 27, 6:10pm

Mon Jan 27, 6:00pm

Mon Jan 27, 5:10pm

Mon Jan 27, 5:00pm

Mon Jan 27, 4:10pm

Mon Jan 27, 4:00pm

Mon Jan 27, 3:10pm

Mon Jan 27, 3:00pm

Mon Jan 27, 2:10pm

Mon Jan 27, 2:00pm

Mon Jan 27, 1:10pm

Mon Jan 27, 1:00pm

Mon Jan 27, 12:10pm

Mon Jan 27, 12:00pm

Mon Jan 27, 11:10am

Mon Jan 27, 11:01am

Mon Jan 27, 10:10am

Mon Jan 27, 10:00am

Mon Jan 27, 9:10am

Mon Jan 27, 9:00am

Mon Jan 27, 8:10am

Mon Jan 27, 8:00am

Mon Jan 27, 7:10am

Mon Jan 27, 7:00am

Mon Jan 27, 6:10am

Mon Jan 27, 6:00am

Mon Jan 27, 5:10am

Mon Jan 27, 5:00am

Mon Jan 27, 4:10am

Mon Jan 27, 4:01am

Mon Jan 27, 3:10am

Mon Jan 27, 3:00am

Mon Jan 27, 2:10am

Mon Jan 27, 2:00am

Mon Jan 27, 1:10am

Mon Jan 27, 1:00am

Mon Jan 27, 12:10am

Mon Jan 27, 12:00am

Sun Jan 26, 11:10pm

Sun Jan 26, 11:00pm

Sun Jan 26, 10:10pm

Sun Jan 26, 10:00pm

Sun Jan 26, 9:10pm

Sun Jan 26, 9:01pm

Sun Jan 26, 8:10pm

Sun Jan 26, 8:00pm

Sun Jan 26, 7:10pm

Sun Jan 26, 7:00pm

Sun Jan 26, 6:10pm

Sun Jan 26, 6:01pm

Sun Jan 26, 5:10pm

Sun Jan 26, 5:01pm

Sun Jan 26, 4:10pm

Sun Jan 26, 4:00pm

Sun Jan 26, 3:10pm

Sun Jan 26, 3:01pm

Sun Jan 26, 2:10pm

Sun Jan 26, 2:01pm

Sun Jan 26, 1:10pm

Sun Jan 26, 1:00pm

Sun Jan 26, 12:10pm

Sun Jan 26, 12:00pm

Sun Jan 26, 11:10am

Sun Jan 26, 11:01am

Sun Jan 26, 10:10am

Sun Jan 26, 10:01am

Sun Jan 26, 9:10am

Sun Jan 26, 9:00am

Sun Jan 26, 8:10am

Sun Jan 26, 8:00am

Sun Jan 26, 7:10am

Sun Jan 26, 7:00am

Sun Jan 26, 6:10am

Sun Jan 26, 6:00am

Sun Jan 26, 5:10am

Sun Jan 26, 5:00am

Sun Jan 26, 4:10am

Sun Jan 26, 4:01am

Sun Jan 26, 3:10am

Sun Jan 26, 3:01am

Sun Jan 26, 2:10am

Sun Jan 26, 2:00am

Sun Jan 26, 1:10am

Sun Jan 26, 1:00am

Sun Jan 26, 12:10am

Sun Jan 26, 12:00am

Sat Jan 25, 11:10pm

Sat Jan 25, 11:00pm

Sat Jan 25, 10:10pm

Sat Jan 25, 10:01pm

Sat Jan 25, 9:10pm

Sat Jan 25, 9:01pm

Sat Jan 25, 8:10pm

Sat Jan 25, 8:01pm

Sat Jan 25, 7:10pm

Sat Jan 25, 7:01pm

Sat Jan 25, 6:10pm

Sat Jan 25, 6:01pm

Sat Jan 25, 5:10pm

Sat Jan 25, 5:01pm

Sat Jan 25, 4:10pm

Sat Jan 25, 4:00pm

Sat Jan 25, 3:10pm

Sat Jan 25, 2:10pm

Sat Jan 25, 2:00pm

Sat Jan 25, 1:10pm

Sat Jan 25, 1:00pm

Sat Jan 25, 12:10pm

Sat Jan 25, 12:00pm

Sat Jan 25, 11:10am

Sat Jan 25, 11:00am

Sat Jan 25, 10:10am

Sat Jan 25, 10:00am

Sat Jan 25, 9:10am

Sat Jan 25, 9:00am

Sat Jan 25, 8:10am

Sat Jan 25, 8:01am

Sat Jan 25, 7:10am

Sat Jan 25, 7:00am

Sat Jan 25, 6:10am

Sat Jan 25, 6:00am

Meta data:

ID: 7b17ba59-5a51-43a4-84e4-b5efd9f46aac
Link: https://api.weather.gov/products/7b17ba59-5a51-43a4-84e4-b5efd9f46aac